| time (UTC) | temp F | wind direction | speed MPH | gust MPH | rain 1hr in | rain 24hr in | rain mn in | humidity % | barometer mb |
| 20260504044008 | 69 | 22 | 0.0 | 0.0 | 0.00 | 0.00 | 0.00 | 52 | 1018.1 |
| 20260504043009 | 70 | 22 | 0.0 | 0.0 | 0.00 | 0.00 | 0.00 | 49 | 1017.9 |
| 20260504042009 | 70 | 360 | 3.0 | 5.0 | 0.00 | 0.00 | 0.00 | 49 | 1017.8 |
| 20260504041107 | 69 | 360 | 0.0 | 4.0 | 0.00 | 0.00 | 0.00 | 52 | 1017.7 |
| 20260504035109 | 71 | 315 | 0.0 | 0.0 | 0.00 | 0.00 | 0.00 | 49 | 1017.4 |
| 20260504034109 | 71 | 180 | 0.0 | 0.0 | 0.00 | 0.00 | 0.00 | 53 | 1017.3 |
| 20260504032211 | 71 | 180 | 0.0 | 0.0 | 0.00 | 0.00 | 0.00 | 51 | 1016.9 |
| 20260504031208 | 73 | 180 | 0.0 | 0.0 | 0.00 | 0.00 | 0.00 | 49 | 1016.9 |
| 20260504030207 | 75 | 180 | 0.0 | 0.0 | 0.00 | 0.00 | 0.00 | 45 | 1016.7 |
| 20260504030109 | 75 | 180 | 0.0 | 0.0 | 0.00 | 0.00 | 0.00 | 45 | 1016.7 |
| 20260504025108 | 75 | 180 | 0.0 | 0.0 | 0.00 | 0.00 | 0.00 | 43 | 1016.7 |
| 20260504025010 | 75 | 180 | 0.0 | 0.0 | 0.00 | 0.00 | 0.00 | 43 | 1016.6 |
| 20260504024108 | 76 | 180 | 0.0 | 0.0 | 0.00 | 0.00 | 0.00 | 40 | 1016.5 |
| 20260504023109 | 79 | 225 | 0.0 | 0.0 | 0.00 | 0.00 | 0.00 | 37 | 1016.5 |
| 20260504022207 | 79 | 225 | 1.0 | 1.0 | 0.00 | 0.00 | 0.00 | 37 | 1016.3 |
| 20260504021207 | 77 | 225 | 1.0 | 2.0 | 0.00 | 0.00 | 0.00 | 38 | 1016.4 |
| 20260504020210 | 77 | 247 | 2.0 | 3.0 | 0.00 | 0.00 | 0.00 | 38 | 1016.3 |
| 20260504015309 | 80 | 45 | 0.0 | 0.0 | 0.00 | 0.00 | 0.00 | 35 | 1016.3 |
| 20260504014307 | 83 | 45 | 0.0 | 0.0 | 0.00 | 0.00 | 0.00 | 32 | 1016.4 |
| 20260504013309 | 81 | 38 | 2.0 | 5.0 | 0.00 | 0.00 | 0.00 | 34 | 1016.4 |
| 20260504010307 | 83 | 45 | 7.0 | 10.0 | 0.00 | 0.00 | 0.00 | 28 | 1016.7 |
| 20260504005309 | 83 | 45 | 6.0 | 8.0 | 0.00 | 0.00 | 0.00 | 29 | 1016.8 |
| 20260504004407 | 81 | 45 | 5.0 | 6.0 | 0.00 | 0.00 | 0.00 | 31 | 1016.9 |
| 20260504003408 | 81 | 45 | 6.0 | 8.0 | 0.00 | 0.00 | 0.00 | 29 | 1017.1 |
| 20260504002407 | 83 | 45 | 6.0 | 9.0 | 0.00 | 0.00 | 0.00 | 28 | 1017.1 |
| 20260504001408 | 80 | 45 | 6.0 | 8.0 | 0.00 | 0.00 | 0.00 | 32 | 1017.2 |
| 20260504000408 | 77 | 45 | 7.0 | 9.0 | 0.00 | 0.00 | 0.00 | 36 | 1017.3 |
| 20260504000308 | 77 | 45 | 7.0 | 10.0 | 0.00 | 0.00 | 0.00 | 37 | 1017.3 |
| 20260503235309 | 76 | 45 | 7.0 | 9.0 | 0.00 | 0.00 | 0.00 | 38 | 1017.3 |
| 20260503234408 | 76 | 45 | 9.0 | 11.0 | 0.00 | 0.00 | 0.00 | 38 | 1017.4 |
| 20260503233408 | 75 | 45 | 10.0 | 11.0 | 0.00 | 0.00 | 0.00 | 40 | 1017.5 |
| 20260503233308 | 75 | 45 | 9.0 | 11.0 | 0.00 | 0.00 | 0.00 | 39 | 1017.5 |
| 20260503232407 | 73 | 45 | 8.0 | 10.0 | 0.00 | 0.00 | 0.00 | 41 | 1017.7 |
| 20260503231409 | 79 | 45 | 9.0 | 10.0 | 0.00 | 0.00 | 0.00 | 32 | 1017.8 |
| 20260503230408 | 76 | 49 | 7.0 | 10.0 | 0.00 | 0.00 | 0.00 | 38 | 1017.8 |
| 20260503225409 | 77 | 45 | 9.0 | 12.0 | 0.00 | 0.00 | 0.00 | 37 | 1018.0 |
| 20260503224407 | 74 | 45 | 10.0 | 12.0 | 0.00 | 0.00 | 0.00 | 41 | 1018.2 |
| 20260503224309 | 74 | 45 | 11.0 | 14.0 | 0.00 | 0.00 | 0.00 | 40 | 1018.2 |
| 20260503223407 | 75 | 45 | 11.0 | 13.0 | 0.00 | 0.00 | 0.00 | 40 | 1018.5 |
| 20260503222409 | 74 | 45 | 10.0 | 12.0 | 0.00 | 0.00 | 0.00 | 42 | 1018.5 |
| 20260503221508 | 73 | 45 | 11.0 | 14.0 | 0.00 | 0.00 | 0.00 | 44 | 1018.8 |
| 20260503220508 | 73 | 45 | 11.0 | 14.0 | 0.00 | 0.00 | 0.00 | 45 | 1018.8 |
| 20260503214509 | 72 | 45 | 11.0 | 15.0 | 0.00 | 0.00 | 0.00 | 46 | 1019.1 |
| 20260503213509 | 72 | 45 | 10.0 | 13.0 | 0.00 | 0.00 | 0.00 | 47 | 1019.3 |
| 20260503212509 | 73 | 45 | 11.0 | 14.0 | 0.00 | 0.00 | 0.00 | 45 | 1019.4 |
| 20260503211507 | 69 | 45 | 10.0 | 14.0 | 0.00 | 0.00 | 0.00 | 54 | 1019.6 |
| 20260503205608 | 67 | 45 | 13.0 | 17.0 | 0.00 | 0.00 | 0.00 | 57 | 1019.9 |
| 20260503203707 | 68 | 45 | 12.0 | 14.0 | 0.00 | 0.00 | 0.00 | 54 | 1020.1 |
| 20260503202708 | 69 | 45 | 14.0 | 15.0 | 0.00 | 0.00 | 0.00 | 52 | 1020.2 |
| 20260503195709 | 69 | 45 | 13.0 | 16.0 | 0.00 | 0.00 | 0.00 | 49 | 1020.6 |
| 20260503193807 | 71 | 45 | 15.0 | 21.0 | 0.00 | 0.00 | 0.00 | 49 | 1020.7 |
| 20260503192810 | 70 | 42 | 11.0 | 18.0 | 0.00 | 0.00 | 0.00 | 49 | 1020.9 |
| 20260503191808 | 71 | 46 | 12.0 | 16.0 | 0.00 | 0.00 | 0.00 | 47 | 1021.0 |
| 20260503190810 | 70 | 45 | 8.0 | 13.0 | 0.00 | 0.00 | 0.00 | 50 | 1021.4 |
| 20260503185908 | 70 | 45 | 11.0 | 16.0 | 0.00 | 0.00 | 0.00 | 50 | 1021.4 |
| 20260503183909 | 71 | 49 | 9.0 | 18.0 | 0.00 | 0.00 | 0.00 | 51 | 1021.4 |
| 20260503183008 | 71 | 43 | 8.0 | 15.0 | 0.00 | 0.00 | 0.00 | 50 | 1021.7 |
| 20260503182009 | 70 | 50 | 6.0 | 9.0 | 0.00 | 0.00 | 0.00 | 52 | 1022.0 |
| 20260503181108 | 70 | 72 | 5.0 | 11.0 | 0.00 | 0.00 | 0.00 | 53 | 1021.9 |
| 20260503180109 | 69 | 46 | 9.0 | 15.0 | 0.00 | 0.00 | 0.00 | 53 | 1022.2 |
| 20260503175109 | 68 | 41 | 10.0 | 16.0 | 0.00 | 0.00 | 0.00 | 55 | 1022.2 |
| 20260503174207 | 68 | 45 | 9.0 | 13.0 | 0.00 | 0.00 | 0.00 | 55 | 1022.3 |
| 20260503173208 | 67 | 45 | 10.0 | 16.0 | 0.00 | 0.00 | 0.00 | 58 | 1022.4 |
| 20260503172207 | 66 | 48 | 9.0 | 15.0 | 0.00 | 0.00 | 0.00 | 57 | 1022.5 |
| 20260503171208 | 66 | 45 | 13.0 | 19.0 | 0.00 | 0.00 | 0.00 | 57 | 1022.4 |
| 20260503170208 | 65 | 49 | 10.0 | 14.0 | 0.00 | 0.00 | 0.00 | 58 | 1022.8 |
| 20260503160210 | 60 | 37 | 6.0 | 10.0 | 0.00 | 0.00 | 0.00 | 69 | 1023.4 |
| 20260503150409 | 59 | 45 | 10.0 | 14.0 | 0.00 | 0.00 | 0.00 | 72 | 1023.5 |
| 20260503130808 | 52 | 45 | 0.0 | 2.0 | 0.00 | 0.00 | 0.00 | 92 | 1023.4 |
| 20260503080107 | 56 | 180 | 0.0 | 0.0 | 0.00 | 0.00 | 0.00 | 92 | 1023.8 |
| 20260503072307 | 57 | 180 | 0.0 | 0.0 | 0.00 | 0.00 | 0.00 | 91 | 1023.9 |
| 20260503070308 | 57 | 225 | 0.0 | 0.0 | 0.00 | 0.00 | 0.00 | 90 | 1023.7 |
| 20260503060118 | 59 | 112 | 0.0 | 0.0 | 0.00 | 0.00 | 0.00 | 86 | 1023.7 |
| 20260503055119 | 59 | 118 | 0.0 | 4.0 | 0.00 | 0.00 | 0.00 | 86 | 1023.8 |
| 20260503054117 | 59 | 270 | 0.0 | 0.0 | 0.00 | 0.00 | 0.00 | 86 | 1024.0 |
| 20260503053117 | 59 | 270 | 0.0 | 0.0 | 0.00 | 0.00 | 0.00 | 86 | 1023.9 |
| 20260503052117 | 59 | 270 | 0.0 | 0.0 | 0.00 | 0.00 | 0.00 | 84 | 1024.0 |
| 20260503050118 | 60 | 45 | 0.0 | 1.0 | 0.00 | 0.00 | 0.00 | 83 | 1024.0 |
| 20260503044219 | 61 | 32 | 4.0 | 6.0 | 0.00 | 0.00 | 0.00 | 80 | 1024.0 |